Dewpoint
73 73 74 74 74 74 74 74 74 74 73 74 73 72 72 72 72 71 72 72 71 71 70 69 69 69 69 68 67 67 67 66 66 66 67 66 65 65 65 65 64 64 66 64 64 63 63 63 63 62 64 63 62 62 63 64 63 63 64 65 64 65 64 62 60 60 61 63 63 62 63 63 61 61 60 60 63 64 66 64 64 64 63 63 62
73 73 74 74 74 74 74 74 74 74 73 73 73 72 72 72 72 72 71 72 72 71 70 70 69 69 68 68 67 67 67 66 65 65 66 66 65 65 64 64 64 63 64 64 64 64 63 63 63 63 66 64 64 64 63 64 63 63 64 65 63 64 64 62 61 60 59 61 62 63 63 63 61 63 61 62 63 65 64 64 65 64 63 63 63
73 73 73 74 73 74 74 74 74 74 73 73 73 72 72 72 72 72 72 71 72 71 71 70 70 69 68 68 67 67 67 66 66 65 65 66 65 65 65 64 63 64 63 62 63 64 64 64 64 64 65 63 63 62 63 63 63 61 62 64 63 63 64 63 62 61 60 60 61 61 62 63 62 62 64 64 64 64 63 62 62 64 65 64 63
72 73 73 73 73 74 74 74 74 73 73 72 72 72 72 72 72 72 72 71 71 71 71 70 70 69 68 68 67 67 66 66 66 66 65 65 65 65 64 65 63 63 63 62 62 64 62 62 63 63 64 62 63 62 63 63 63 62 61 63 63 63 63 63 62 59 60 59 60 61 62 62 63 64 65 65 64 63 63 62 63 63 62 63 63
72 73 73 73 73 73 73 73 73 73 73 72 72 72 71 71 71 71 71 71 71 70 71 71 70 70 69 68 67 67 67 66 66 66 66 65 65 65 64 64 64 63 63 63 64 63 63 62 61 63 63 62 63 62 63 63 63 63 62 62 62 62 63 63 63 63 62 62 62 64 64 64 64 64 64 63 63 63 63 63 62 62 62 62 62
71 72 73 72 73 73 73 73 73 73 73 72 72 71 71 71 71 71 71 70 70 70 70 71 70 70 69 68 68 67 67 67 66 66 66 65 64 64 64 64 64 65 64 63 63 63 62 62 63 63 63 62 63 63 64 63 63 63 62 63 63 65 64 63 63 64 62 62 62 63 63 62 62 63 64 64 63 62 61 61 61 62 62 62 62
71 72 72 72 72 72 73 73 73 73 73 72 72 71 70 70 71 71 71 70 69 69 69 70 71 70 70 69 68 68 67 67 66 66 66 65 65 64 63 63 64 64 64 64 64 63 63 63 63 64 63 63 63 63 64 64 64 63 63 63 64 65 63 63 64 62 61 60 60 62 62 63 63 62 62 63 63 62 60 59 58 60 61 61 61
70 71 72 72 72 72 72 73 73 73 73 72 71 71 70 70 70 71 71 71 70 69 69 70 71 71 71 70 69 68 67 67 67 66 66 65 65 64 63 63 63 64 64 64 64 64 64 64 64 64 64 64 64 64 64 63 64 63 63 64 64 64 64 64 63 62 61 61 61 61 61 61 61 62 63 62 60 60 61 60 59 58 59 60 62
70 71 72 72 71 72 72 72 73 73 73 72 71 71 71 70 70 71 71 71 71 70 70 70 71 71 71 70 69 68 67 67 67 66 65 65 65 64 63 63 63 64 64 64 64 64 65 65 64 65 66 68 68 67 67 68 65 63 64 65 65 64 64 64 63 62 61 61 61 61 61 61 61 60 60 59 58 57 59 59 59 59 59 60 60
70 70 71 71 71 71 72 72 72 73 73 72 72 71 71 70 70 70 71 71 71 71 71 72 72 72 71 70 69 69 68 68 65 61 63 65 65 65 64 63 63 64 64 64 64 65 65 65 66 67 68 65 66 68 67 68 67 66 65 65 65 63 62 61 60 60 59 58 58 58 58 58 59 59 58 58 59 59 58 59 59 59 60 59 59
68 69 70 71 71 71 72 72 72 72 73 73 72 72 71 71 70 70 72 72 72 71 71 72 72 72 71 70 69 69 68 67 62 61 62 63 65 65 64 63 64 64 65 64 65 64 64 65 65 66 68 68 65 67 66 65 65 65 65 65 66 64 62 61 61 60 60 59 59 58 58 58 58 58 58 58 58 58 59 59 59 59 58 57 56
67 67 68 70 72 72 72 72 72 72 73 73 73 72 72 71 70 71 72 72 72 72 71 72 72 72 71 70 69 69 68 64 60 61 62 62 64 65 65 64 64 65 65 65 65 65 64 64 65 66 66 66 65 66 67 66 65 64 64 64 64 65 64 62 62 61 61 60 59 58 57 57 57 58 58 58 58 60 60 59 59 58 57 57 57
65 66 67 69 71 72 73 73 73 73 73 73 73 72 72 71 71 72 72 72 72 72 71 72 71 71 71 70 69 69 68 62 60 60 61 61 62 65 65 65 66 65 66 65 65 64 64 64 64 66 67 68 68 66 66 65 64 63 64 65 65 64 62 62 63 64 63 61 60 59 58 58 58 58 59 60 61 59 59 58 58 57 57 56 56
64 65 66 69 71 72 73 73 73 73 73 73 73 73 72 72 72 73 74 73 73 72 72 72 71 71 70 70 69 69 68 62 59 59 59 60 61 63 64 66 67 66 66 65 64 64 64 63 65 66 66 67 66 66 65 64 64 63 63 63 64 65 64 62 61 61 62 63 61 60 60 60 60 60 61 61 60 59 58 57 56 56 56 55 55
63 64 65 68 71 72 73 73 73 74 73 73 73 73 73 73 74 74 73 73 72 72 71 71 71 71 70 70 69 69 69 60 58 58 58 59 60 64 66 67 67 67 66 65 64 63 64 64 65 65 65 66 66 66 65 64 64 64 64 64 64 64 64 65 65 65 64 63 62 62 62 61 61 61 61 61 59 58 57 56 55 54 54 55 56
63 63 64 68 71 72 73 73 74 74 74 74 74 74 74 74 74 73 73 72 72 72 71 71 71 70 71 70 69 68 64 57 57 57 57 58 61 67 67 67 66 65 65 65 64 65 65 65 65 65 65 65 65 65 66 64 64 64 63 63 64 65 65 65 63 64 65 65 63 62 62 61 61 62 60 57 56 56 57 57 56 55 54 53 53
64 63 64 68 71 73 73 74 74 75 75 75 74 74 74 73 74 73 73 72 72 71 71 71 71 70 70 70 67 64 62 57 57 56 56 58 62 67 66 66 65 64 63 63 64 66 66 66 65 65 65 65 64 61 63 66 64 63 63 63 63 64 63 64 61 60 60 59 58 58 56 55 54 54 54 54 56 55 53 52 52 51 52 51 51
66 65 65 68 72 73 74 75 75 75 75 74 74 74 73 73 73 73 72 72 71 71 71 71 70 70 70 68 65 64 62 58 55 54 56 59 62 66 65 64 63 63 64 64 65 66 67 68 67 65 65 64 62 60 61 65 63 62 62 63 63 63 63 63 62 61 60 57 56 56 55 55 55 54 54 53 53 54 52 51 51 52 51 52 51
67 67 67 71 74 75 76 76 75 75 74 74 73 73 73 73 73 73 73 72 71 70 71 71 70 70 69 67 63 63 62 57 53 55 56 58 63 65 64 63 62 62 63 64 66 66 67 67 68 67 65 64 60 59 59 63 63 62 62 62 63 62 61 60 60 59 59 58 58 59 58 59 59 58 59 57 56 57 56 54 53 53 52 52 53
70 69 71 75 76 76 76 75 75 74 74 73 73 73 73 73 73 73 72 70 69 69 69 69 68 67 66 65 64 63 61 59 58 54 56 58 60 65 63 63 61 61 61 63 64 65 65 65 65 62 60 60 58 56 56 59 62 62 62 62 61 60 57 57 59 60 58 57 56 57 57 57 57 56 56 56 57 59 58 57 56 55 54 54 55
73 75 76 76 76 76 75 75 74 74 73 73 73 72 72 72 72 71 69 68 68 68 68 67 66 65 65 64 63 62 61 60 59 54 55 56 58 60 63 61 61 61 62 63 63 63 64 65 64 62 58 57 55 53 53 55 60 59 58 58 59 57 55 56 57 58 55 56 57 56 56 56 56 56 56 56 56 56 57 54 57 57 56 53 49
75 76 76 76 75 75 74 74 73 73 72 72 71 71 71 71 70 68 68 67 67 66 66 65 65 64 64 63 63 62 61 59 59 54 54 54 55 57 61 61 62 62 62 61 62 63 64 64 65 62 57 55 54 51 50 52 55 58 56 52 50 53 55 56 55 55 55 55 54 54 54 54 53 54 54 55 55 57 52 51 50 49 49 48 48
76 76 76 75 74 74 73 73 72 72 71 71 71 70 70 69 68 68 67 66 66 65 65 64 63 63 63 63 63 62 61 61 57 58 53 52 52 55 57 59 58 62 61 61 61 62 63 64 65 61 56 52 48 48 49 50 54 55 48 49 50 52 56 56 55 55 54 54 54 53 53 54 54 54 54 54 53 52 51 49 49 49 50 51 51
76 75 74 74 73 73 72 72 72 71 71 71 70 69 68 67 67 66 66 65 64 64 64 63 63 62 62 62 62 62 61 61 57 56 55 52 51 52 54 56 57 60 61 60 61 62 64 64 61 52 47 44 46 48 50 51 55 49 47 50 51 54 55 54 53 53 55 53 52 52 53 54 54 52 51 54 53 51 50 49 48 48 49 50 50
75 74 74 73 72 72 72 72 72 71 71 70 68 67 67 66 65 65 65 64 64 63 63 63 62 62 62 62 62 62 62 61 59 57 55 53 52 51 53 53 54 56 62 63 65 61 58 52 47 47 47 46 48 49 50 50 51 48 48 50 55 54 55 53 53 53 52 53 53 54 54 55 51 50 51 52 52 50 50 50 51 52 52 52 52
73 73 73 72 72 72 71 71 71 70 70 69 68 67 66 66 65 64 64 64 63 63 63 63 62 62 62 62 62 63 63 61 59 58 57 55 55 53 54 55 58 59 59 56 54 51 50 48 48 49 49 51 52 53 54 53 51 52 51 52 53 54 53 53 52 53 53 53 54 54 53 50 49 50 53 51 50 49 50 50 50 52 50 48 47
72 72 71 71 71 71 70 70 69 69 68 68 67 66 66 65 65 64 64 63 63 63 62 62 62 62 62 62 63 63 64 63 61 59 58 57 56 56 56 57 58 57 57 55 53 53 51 53 53 52 52 52 54 55 56 57 54 52 52 54 53 54 54 53 53 53 54 54 54 53 51 50 52 52 49 48 47 48 50 52 50 48 48 47 47
71 71 70 69 68 68 69 69 68 67 67 66 66 66 65 65 64 64 63 63 63 62 62 62 61 61 61 62 63 63 63 63 62 59 58 57 57 57 58 59 58 58 56 55 55 56 55 54 52 54 54 53 53 54 55 56 56 56 54 54 54 55 56 57 57 54 54 54 53 52 52 51 47 48 49 47 47 47 49 50 48 46 48 47 45
69 69 69 69 68 67 67 67 65 62 58 55 52 54 65 65 64 59 56 60 64 62 62 62 62 61 62 63 63 63 63 63 63 57 60 55 57 57 58 59 59 59 57 54 57 57 55 54 54 55 54 54 53 53 53 53 55 56 56 56 55 55 55 54 54 54 55 54 53 52 52 48 47 48 47 46 47 47 46 46 48 46 44 44 44
69 68 67 65 66 65 64 62 61 60 59 57 55 53 49 44 52 59 56 52 49 49 58 62 62 61 62 63 62 63 63 63 56 53 52 51 51 52 53 53 53 57 54 53 56 55 54 53 54 54 55 54 54 54 53 53 54 55 55 56 56 55 54 54 54 52 51 50 49 47 46 47 45 45 46 46 45 45 45 47 44 44 44 44 44
68 66 65 64 64 64 62 61 60 60 59 58 57 57 55 51 42 42 47 47 44 42 42 47 52 58 61 59 54 52 57 53 51 50 50 49 49 49 50 49 50 51 50 54 57 55 55 55 55 55 55 55 55 54 55 55 55 55 55 55 55 55 53 50 48 49 49 49 48 47 47 46 45 45 44 45 45 45 44 45 45 46 45 44 42
66 65 64 63 63 63 62 61 60 60 60 60 59 58 56 55 53 45 41 44 43 41 41 42 47 52 53 55 55 56 51 49 50 49 49 48 48 48 48 47 48 48 48 50 57 57 56 56 56 56 56 55 56 56 56 55 54 54 54 54 54 54 48 49 49 47 47 48 46 45 44 44 44 44 44 45 46 42 41 41 42 44 45 44 44
64 63 63 63 64 64 62 61 61 61 61 60 59 58 57 56 55 53 51 43 41 41 41 41 41 43 46 49 51 50 48 47 48 47 47 47 47 47 47 46 46 46 47 54 57 57 57 57 55 55 55 55 53 52 51 50 51 52 51 50 50 50 49 49 48 48 48 46 46 44 44 44 45 45 44 43 41 39 41 42 43 43 43 43 44
64 63 63 63 63 63 62 62 61 61 61 61 60 59 58 57 56 55 55 55 54 49 44 41 40 42 40 41 43 43 44 44 45 45 44 44 43 43 45 47 44 43 50 56 57 56 54 53 53 53 54 52 49 51 52 50 51 51 51 51 52 51 51 50 47 45 44 43 42 43 45 41 41 39 38 40 41 43 43 44 41 40 41 41 40
65 66 67 66 63 63 63 62 62 62 62 61 61 60 59 58 57 57 57 56 56 55 54 51 44 40 44 42 40 41 41 42 43 43 42 42 42 43 46 52 53 52 53 56 56 54 54 53 52 53 53 52 51 52 50 51 52 50 50 50 50 48 47 46 46 45 44 43 44 41 40 39 37 39 41 41 42 42 41 41 40 41 40 39 39
65 65 65 65 62 63 63 63 62 62 62 62 62 62 61 59 59 59 58 58 57 55 53 49 47 45 41 38 39 39 40 40 41 41 41 42 43 46 53 52 52 52 52 52 53 53 53 53 53 52 53 51 53 52 51 50 51 51 49 50 51 49 47 46 46 44 45 42 41 42 40 38 39 40 41 43 42 41 39 39 41 41 41 39 41
64 64 64 63 63 63 63 63 63 63 62 62 62 62 61 60 60 60 60 59 57 55 52 50 50 50 49 47 43 40 39 40 40 41 41 42 44 51 54 53 52 53 53 52 52 52 52 52 52 54 52 52 51 51 52 52 50 50 49 48 47 46 46 46 46 48 41 42 41 39 37 36 36 38 42 41 42 40 40 43 41 40 40 42 45
64 64 64 64 64 64 63 63 62 62 61 61 62 62 61 61 60 60 60 59 57 54 52 52 53 53 52 49 49 47 44 42 43 44 44 45 47 50 53 55 55 53 52 53 52 53 52 53 53 52 52 51 50 52 49 48 48 47 49 49 49 49 51 47 47 43 45 42 41 41 43 41 42 43 43 40 39 39 39 40 38 37 39 43 42
64 62 61 62 62 63 62 62 61 62 62 61 62 62 61 61 60 60 60 58 56 55 54 54 54 54 52 50 49 49 49 49 50 50 50 50 50 51 52 53 55 56 54 53 53 53 53 54 52 52 52 51 51 48 48 49 49 48 48 49 45 46 46 44 44 44 44 42 42 41 42 43 42 43 41 38 38 38 37 37 37 39 39 39 39
63 63 61 61 62 62 62 62 61 62 62 61 62 62 61 61 60 60 58 57 56 55 54 55 55 54 52 51 50 49 51 51 51 51 51 51 52 52 52 52 52 54 54 55 55 54 53 54 54 53 52 51 48 50 51 50 49 50 48 45 44 43 43 42 41 41 41 44 44 43 40 41 43 40 38 39 38 38 38 38 40 40 39 40 41
63 63 63 61 61 63 64 62 61 62 62 62 62 61 60 60 60 60 58 57 56 56 55 56 56 54 52 50 48 48 52 52 53 53 53 53 52 52 51 51 52 52 54 54 55 54 54 55 54 53 53 51 49 49 49 50 49 47 46 46 44 43 40 39 40 40 39 38 40 41 41 41 40 37 36 38 42 41 41 42 40 37 39 41 40
64 62 62 61 62 62 62 61 62 64 62 61 60 59 60 60 60 59 59 58 57 56 56 57 56 55 51 47 45 45 52 53 54 53 53 53 52 51 52 51 52 53 54 55 53 53 52 52 52 53 54 53 51 52 49 46 46 46 46 43 42 41 39 38 40 41 42 42 41 42 40 39 40 41 41 43 40 39 40 38 37 39 41 40 40
63 62 64 64 64 64 62 62 61 61 60 58 58 61 61 59 59 59 59 59 58 58 58 58 57 55 52 48 47 46 52 53 56 54 52 52 52 52 52 52 53 54 56 55 55 55 54 52 51 50 51 52 51 49 46 46 46 43 43 42 40 37 37 40 41 42 42 41 40 41 40 40 41 40 41 42 41 41 38 38 40 41 40 40 40
61 62 63 62 62 60 60 60 59 58 59 60 60 59 59 58 58 59 58 59 59 59 59 58 56 54 52 49 48 48 51 53 55 54 53 53 52 52 52 52 53 55 54 54 54 53 53 52 51 52 52 50 48 48 47 45 43 39 38 38 40 39 37 38 38 41 41 40 40 40 41 42 42 40 41 43 40 39 40 41 41 40 40 40 40
61 62 62 60 61 60 61 60 59 59 59 58 57 57 58 56 57 57 57 57 59 58 58 57 55 53 52 50 50 50 51 52 54 54 55 54 52 53 53 54 55 54 53 53 53 52 52 52 52 52 52 50 48 47 45 44 42 38 36 35 35 38 40 40 40 40 41 42 41 41 42 42 41 40 40 40 42 42 42 40 40 42 42 41 39
61 60 58 58 59 59 59 58 58 57 57 57 56 56 56 56 56 55 56 55 57 58 58 56 54 53 52 51 51 51 51 53 54 54 54 55 55 53 54 54 54 53 52 53 53 51 50 51 51 51 49 47 47 46 44 43 41 41 38 37 38 41 41 40 40 40 41 42 42 41 41 41 39 39 43 42 42 43 41 41 41 43 42 40 38
61 61 61 59 59 59 59 59 58 57 56 56 56 55 55 57 55 56 59 56 54 57 56 56 54 54 53 53 53 52 53 54 54 54 54 54 54 54 54 54 53 53 53 53 52 52 53 52 49 49 50 49 47 46 45 43 40 40 42 38 40 41 40 39 39 39 40 41 41 38 37 38 38 38 40 41 42 42 42 42 43 42 39 39 38
61 61 61 61 60 60 59 58 58 59 57 55 55 54 53 54 54 52 51 54 55 55 55 56 55 54 54 54 54 54 54 54 54 54 54 55 55 54 54 54 53 53 53 52 52 52 49 48 49 49 49 48 46 45 44 43 42 39 37 36 36 35 38 39 37 34 33 35 35 34 34 34 34 35 38 41 42 42 42 42 42 38 39 39 39
60 59 60 59 59 59 58 57 57 56 56 56 56 54 53 54 53 52 51 51 52 51 51 54 54 55 55 55 55 54 54 54 53 53 53 54 54 54 53 53 53 52 51 50 51 50 49 49 48 48 47 46 46 45 44 43 40 35 34 34 36 38 36 35 33 28 29 35 35 35 36 36 38 41 42 41 42 42 43 41 38 38 38 39 39
60 60 59 60 59 58 59 58 57 55 55 54 53 54 53 53 52 53 51 49 49 50 50 49 51 53 53 53 52 53 52 52 52 53 53 53 54 54 53 53 53 51 50 50 51 49 49 49 48 48 48 47 46 45 44 43 38 34 33 31 34 32 32 33 35 38 36 37 36 34 35 36 37 37 39 40 41 42 42 41 41 40 40 39 40
59 59 59 59 58 58 57 57 56 54 54 54 53 53 53 52 51 51 51 48 48 50 49 44 46 48 48 50 52 52 52 52 52 52 52 53 53 53 53 53 52 51 50 51 50 48 48 47 47 47 47 47 46 45 44 42 36 33 32 31 31 30 30 30 31 32 34 36 34 35 35 37 38 38 38 39 41 41 43 44 42 40 40 40 41